Wind_Speed
2 2 2 2 3 3 2 2 2 1 2 1 0 1 1 2 3 2 2 3 3 3 4 4 4 4 5 6 6 6 6 6 6 6 6 6 6 7 7 8 7 7 7
3 2 2 2 2 2 2 2 2 2 1 1 1 1 2 2 3 3 3 3 3 4 4 5 5 5 5 6 6 6 6 6 6 7 7 7 7 8 8 8 8 8 8
3 2 2 2 2 3 3 3 2 2 1 0 1 2 3 3 3 4 4 4 4 4 4 4 5 5 5 5 6 6 6 7 7 7 7 7 7 8 8 8 8 8 9
3 3 3 3 2 3 3 3 3 2 1 1 2 2 3 3 3 4 4 4 5 5 5 5 5 5 5 5 5 6 6 7 7 7 7 7 7 8 8 8 8 8 9
4 3 3 2 2 2 2 2 2 1 1 1 2 3 3 4 3 4 4 5 5 5 5 6 6 6 6 5 5 6 6 6 7 7 7 8 7 8 8 9 9 8 8
4 3 3 3 2 2 2 2 1 1 1 2 2 3 3 4 4 4 4 5 6 6 6 6 6 6 6 6 6 6 7 7 7 7 7 8 8 8 9 9 9 9 8
4 4 4 4 3 2 1 1 1 1 1 2 3 4 4 5 5 4 5 5 6 6 6 7 7 7 6 6 6 6 7 7 8 8 8 8 9 9 9 10 10 9 9
5 5 5 4 3 2 1 1 1 1 2 2 3 4 4 5 5 5 5 6 6 6 6 7 7 6 6 6 6 7 7 7 7 7 8 8 9 9 10 10 10 9 9
6 5 5 4 3 2 1 1 1 2 2 3 4 4 5 5 5 6 6 6 6 6 6 6 6 6 6 6 7 7 7 8 8 7 7 8 9 9 10 10 9 10 10
6 6 6 4 3 2 1 1 2 2 3 4 4 5 5 6 6 6 6 6 6 6 6 5 5 5 6 6 7 7 7 7 8 8 8 8 8 9 10 10 10 9 9
6 6 6 4 2 2 2 2 2 2 3 4 5 5 6 6 6 6 6 6 6 5 5 5 5 6 6 6 7 7 7 7 7 8 8 8 8 9 10 10 10 9 9
7 7 5 4 3 2 2 1 2 2 3 4 5 5 6 6 6 6 6 6 5 5 5 5 6 6 7 7 7 7 7 8 8 8 8 8 8 9 10 10 10 10 10
7 7 6 5 4 3 2 1 1 2 3 4 4 5 6 6 6 6 6 6 5 5 5 6 7 7 7 7 7 7 7 8 8 8 8 8 9 9 10 10 10 10 10
8 8 7 6 5 4 2 1 1 2 3 3 4 5 5 6 5 5 6 6 6 6 6 7 7 7 7 7 7 7 7 7 7 8 8 8 9 9 9 10 10 11 11
8 8 7 6 5 4 3 2 2 2 2 3 3 4 5 5 6 6 6 6 6 7 7 7 7 7 7 7 6 6 7 7 7 7 8 8 9 9 9 9 9 11 11
7 7 7 7 5 4 3 2 2 2 2 2 3 4 5 5 6 7 7 7 7 7 7 7 7 7 6 6 6 6 6 6 6 7 8 8 9 9 8 9 9 9 10
7 7 7 7 5 4 4 3 1 1 2 2 3 3 4 5 6 7 7 7 7 7 7 7 7 6 6 5 5 5 5 6 6 7 7 8 8 9 8 9 9 9 10
7 6 6 6 5 4 4 2 1 0 1 2 3 3 4 5 6 7 7 8 8 8 8 7 7 6 5 5 4 4 5 5 5 6 7 7 8 8 9 9 9 9 9
7 6 6 6 5 4 4 2 1 0 1 2 2 3 4 5 6 6 7 8 8 8 8 8 7 6 5 5 4 4 4 4 4 5 6 6 7 8 8 9 9 10 9
7 6 6 5 5 4 3 3 1 0 1 2 2 3 4 5 5 6 7 8 8 8 9 9 8 7 6 5 4 4 3 4 4 5 5 5 6 7 7 8 9 9 10
7 6 6 5 5 4 3 3 2 1 1 2 2 3 4 4 5 6 6 7 8 9 9 9 8 8 7 6 5 4 3 3 3 4 5 5 5 6 7 8 9 9 9
6 6 6 5 4 4 3 3 2 1 1 2 3 3 3 4 5 6 6 7 8 9 9 9 9 8 7 7 6 5 4 3 2 3 3 4 5 6 7 8 9 9 10
7 6 6 5 5 4 4 3 3 2 2 2 2 3 3 4 5 6 6 7 8 8 9 9 9 8 7 6 6 5 4 3 3 2 3 4 5 6 7 8 9 10 10
7 7 6 5 5 5 4 3 3 2 2 2 3 3 3 4 5 5 6 7 7 8 9 9 8 8 8 6 6 5 4 4 3 2 2 3 5 6 7 8 9 10 10
7 7 6 6 5 5 4 4 3 3 3 3 3 3 3 4 4 5 6 7 7 8 8 8 8 8 8 7 6 6 5 4 4 3 3 4 5 6 7 8 9 10 11
7 7 7 6 6 6 5 5 4 4 3 3 3 3 4 4 5 5 6 6 7 8 8 8 8 8 8 7 7 6 6 5 5 4 5 5 6 6 7 8 9 10 11
Wind_Direction
129 118 121 119 113 116 125 115 107 83 74 60 94 338 321 316 314 298 318 313 310 301 291 287 284 266 256 250 244 240 240 239 237 233 233 232 227 222 221 216 214 208 201
138 132 138 125 126 125 129 138 125 119 85 53 306 312 305 304 304 308 313 309 305 296 292 287 285 275 264 254 248 244 245 244 241 237 237 236 234 228 222 218 217 212 207
157 152 155 127 129 130 128 126 123 133 121 15 325 319 313 299 293 299 302 301 304 293 287 289 288 280 272 261 252 246 247 247 242 239 239 238 234 225 221 221 219 215 212
180 172 155 147 135 129 131 124 120 121 115 345 334 325 314 303 298 298 297 296 304 296 288 293 293 286 278 267 257 250 248 246 245 242 239 236 229 223 223 222 223 216 215
185 179 159 161 154 131 128 120 126 109 31 358 341 331 316 317 310 301 300 294 298 294 291 294 294 286 279 274 264 256 251 247 246 244 241 238 233 227 227 226 224 221 220
184 178 172 171 156 141 135 130 123 40 345 337 338 333 324 320 317 312 305 299 297 294 292 293 292 286 279 274 265 260 255 250 248 245 243 240 236 231 229 227 225 225 224
184 179 171 168 168 174 159 160 278 308 326 327 326 334 331 324 319 312 308 305 299 297 295 292 292 287 279 272 266 259 256 252 250 248 246 243 238 235 231 229 226 226 227
190 186 180 175 181 189 188 191 294 299 318 325 324 330 330 324 321 317 313 307 300 297 295 291 288 283 275 271 267 262 258 255 253 250 249 245 240 237 232 231 230 228 228
196 190 178 180 189 192 208 246 302 313 325 322 326 331 329 326 324 324 324 316 308 303 295 290 285 283 275 269 265 262 258 255 253 251 251 248 241 236 233 231 229 230 230
202 189 184 189 195 205 224 278 296 309 313 318 324 328 330 330 331 330 325 321 315 310 302 294 286 285 283 276 270 267 262 257 253 251 252 250 244 237 234 230 228 229 230
191 186 189 190 200 221 240 281 311 319 318 320 325 330 334 337 335 330 326 326 322 317 312 304 298 296 292 286 278 271 267 262 257 254 252 249 245 239 234 231 229 228 229
188 186 186 192 204 226 235 285 325 338 336 325 324 330 338 339 338 333 334 333 327 321 315 310 304 298 294 290 283 274 267 263 260 256 252 246 243 240 237 234 232 230 226
190 192 193 200 208 210 218 265 319 345 339 336 340 340 343 343 341 338 337 336 334 328 319 311 309 303 296 291 282 274 269 263 262 258 252 246 240 239 239 236 232 227 221
192 194 196 201 205 201 209 239 295 339 335 341 349 349 351 350 346 345 342 342 339 333 322 315 314 309 299 292 281 273 266 262 261 258 250 244 239 237 235 233 231 226 222
191 196 202 202 200 199 209 238 285 318 327 332 347 354 358 359 353 348 348 346 343 336 329 325 323 318 306 297 293 281 269 265 262 256 249 244 239 236 235 232 231 228 227
195 199 204 203 198 204 217 234 266 306 330 345 356 2 7 6 2 358 356 352 350 345 339 332 327 320 313 304 297 287 272 264 260 255 251 246 243 240 239 235 232 230 229
193 199 201 201 201 203 209 213 239 331 352 6 4 8 8 5 7 6 5 1 358 355 349 344 339 332 323 312 300 289 278 266 261 257 252 246 245 243 241 237 232 230 229
191 197 201 201 201 196 198 194 213 341 5 8 6 10 10 5 7 8 4 5 6 5 1 356 351 344 338 328 313 295 281 273 265 260 252 246 244 242 239 236 230 226 228
195 197 200 199 193 187 188 188 189 122 18 5 1 7 6 3 5 8 10 11 13 12 9 5 360 354 348 341 328 305 288 283 274 265 254 247 242 238 236 233 230 226 225
196 194 194 194 185 181 187 204 217 223 343 351 349 358 2 4 5 7 13 13 13 14 12 10 7 3 357 351 340 324 302 284 270 263 254 247 239 237 236 232 230 228 227
192 193 197 189 187 189 203 218 221 250 311 331 345 354 1 4 6 5 12 13 14 15 15 14 11 5 1 358 352 342 325 304 280 267 258 251 244 239 236 235 231 229 229
193 195 195 193 191 193 208 222 226 248 291 314 334 355 4 1 2 4 9 13 13 15 16 14 11 7 4 2 359 354 347 331 300 282 262 252 249 244 242 239 237 235 234
199 199 201 204 201 205 216 222 219 228 255 295 318 332 347 354 359 4 9 13 14 17 16 13 11 10 8 6 6 5 360 353 332 306 282 264 258 253 246 244 244 241 240
205 207 211 211 212 220 224 230 230 227 254 290 308 319 329 341 352 357 4 9 10 11 12 11 10 10 6 4 6 4 360 353 345 331 309 285 272 262 257 253 249 245 243
210 214 214 217 221 221 227 235 222 236 268 290 303 316 326 335 342 349 356 0 1 3 6 8 8 7 6 4 1 357 350 343 337 321 309 301 289 275 264 260 254 250 248
210 215 218 219 222 224 231 227 235 246 259 285 302 313 322 326 331 339 347 353 354 354 358 1 3 2 1 1 357 353 347 336 328 324 311 304 298 289 277 265 259 259 255
Height
5892 5892 5892 5892 5892 5892 5892 5892 5892 5893 5892 5892 5892 5892 5891 5891 5890 5890 5889 5888 5888 5887 5886 5885 5885 5885 5885 5885 5885 5885 5885 5886 5886 5886 5886 5887 5887 5887 5888 5889 5889 5890 5891
5892 5892 5892 5892 5892 5892 5892 5892 5892 5893 5893 5892 5892 5892 5891 5890 5890 5889 5889 5888 5887 5886 5885 5885 5884 5884 5884 5884 5884 5884 5884 5885 5885 5885 5885 5885 5886 5886 5887 5888 5889 5889 5890
5892 5892 5892 5892 5892 5892 5892 5892 5892 5893 5893 5892 5892 5891 5891 5890 5889 5889 5888 5887 5886 5885 5885 5884 5883 5883 5883 5882 5882 5883 5883 5883 5884 5884 5884 5884 5883 5884 5886 5887 5888 5888 5889
5891 5892 5892 5892 5892 5892 5893 5893 5893 5893 5892 5892 5891 5891 5890 5889 5889 5888 5887 5886 5885 5884 5884 5883 5882 5882 5882 5881 5881 5881 5881 5882 5882 5882 5882 5883 5882 5883 5884 5885 5886 5887 5888
5891 5891 5892 5892 5892 5893 5893 5893 5893 5893 5892 5892 5891 5890 5890 5889 5888 5887 5886 5885 5884 5884 5883 5882 5881 5881 5881 5880 5880 5880 5880 5880 5880 5881 5881 5882 5882 5883 5883 5884 5885 5886 5887
5891 5891 5891 5892 5892 5893 5893 5893 5893 5892 5892 5892 5891 5890 5889 5888 5887 5886 5885 5884 5883 5882 5882 5881 5880 5880 5879 5879 5879 5879 5879 5879 5879 5879 5880 5880 5881 5881 5882 5883 5884 5885 5886
5890 5891 5891 5892 5892 5892 5892 5892 5892 5892 5892 5891 5890 5889 5888 5887 5886 5885 5884 5883 5882 5881 5880 5879 5879 5878 5878 5877 5877 5877 5877 5877 5877 5878 5878 5879 5879 5880 5881 5882 5883 5884 5885
5889 5890 5891 5891 5892 5892 5892 5892 5892 5892 5891 5891 5890 5889 5888 5887 5885 5884 5883 5882 5881 5879 5878 5878 5877 5877 5876 5876 5876 5876 5876 5876 5876 5876 5877 5877 5878 5878 5879 5880 5881 5882 5883
5889 5890 5890 5891 5892 5892 5892 5891 5891 5891 5891 5890 5889 5888 5887 5886 5884 5883 5882 5880 5879 5878 5877 5876 5875 5875 5874 5874 5874 5874 5874 5874 5874 5875 5875 5875 5876 5877 5878 5878 5879 5880 5881
5888 5889 5890 5890 5891 5891 5891 5891 5891 5890 5890 5889 5888 5887 5886 5885 5883 5882 5881 5879 5878 5876 5875 5874 5874 5873 5873 5872 5872 5872 5872 5872 5873 5873 5873 5874 5874 5875 5876 5877 5878 5878 5879
5887 5888 5889 5890 5890 5890 5890 5890 5890 5889 5889 5888 5887 5886 5885 5884 5882 5881 5879 5878 5877 5875 5874 5873 5873 5872 5871 5871 5870 5870 5870 5871 5871 5871 5872 5872 5873 5873 5874 5875 5876 5877 5877
5886 5887 5888 5889 5889 5890 5890 5889 5889 5889 5888 5888 5886 5885 5884 5883 5881 5880 5879 5877 5876 5874 5873 5872 5871 5870 5870 5869 5869 5868 5868 5869 5869 5869 5870 5870 5871 5871 5872 5873 5874 5875 5876
5886 5887 5888 5888 5889 5889 5889 5889 5888 5888 5887 5887 5886 5884 5883 5882 5881 5879 5878 5876 5875 5873 5872 5871 5870 5869 5868 5867 5867 5866 5866 5866 5867 5867 5867 5868 5869 5870 5870 5871 5872 5873 5874
5885 5886 5886 5887 5887 5888 5888 5888 5887 5887 5886 5886 5885 5884 5883 5881 5880 5878 5877 5875 5874 5872 5871 5870 5868 5867 5866 5865 5865 5864 5864 5864 5865 5865 5865 5866 5867 5867 5868 5869 5870 5871 5872
5884 5885 5886 5886 5886 5887 5887 5887 5886 5886 5886 5885 5884 5883 5882 5881 5879 5878 5876 5875 5873 5871 5870 5868 5867 5865 5864 5864 5863 5862 5862 5862 5863 5863 5863 5864 5865 5866 5866 5867 5868 5870 5871
5883 5884 5884 5885 5885 5886 5886 5886 5886 5885 5885 5884 5883 5882 5881 5880 5879 5877 5875 5874 5872 5870 5869 5867 5865 5864 5863 5862 5861 5861 5860 5860 5861 5861 5862 5862 5863 5864 5865 5866 5867 5868 5869
5882 5883 5883 5884 5884 5885 5885 5885 5885 5884 5884 5884 5883 5882 5881 5880 5878 5877 5875 5873 5871 5870 5868 5866 5864 5863 5862 5861 5860 5859 5859 5859 5859 5859 5860 5861 5861 5862 5863 5864 5865 5866 5867
5881 5882 5882 5882 5883 5883 5884 5884 5884 5884 5883 5883 5882 5881 5880 5879 5878 5876 5875 5873 5871 5869 5867 5865 5863 5862 5860 5859 5859 5858 5858 5858 5858 5858 5858 5859 5859 5860 5861 5862 5863 5864 5866
5880 5881 5881 5881 5882 5882 5883 5883 5883 5883 5883 5882 5882 5881 5880 5879 5878 5876 5874 5873 5871 5869 5866 5864 5863 5861 5859 5858 5857 5857 5856 5856 5856 5856 5857 5857 5858 5858 5859 5860 5862 5863 5864
5879 5880 5880 5880 5881 5881 5882 5882 5883 5883 5882 5882 5881 5880 5879 5878 5877 5876 5874 5872 5870 5868 5866 5864 5862 5860 5859 5858 5857 5856 5855 5855 5855 5855 5855 5856 5856 5857 5858 5859 5860 5861 5862
5878 5879 5879 5880 5880 5881 5881 5882 5882 5882 5882 5881 5881 5880 5879 5878 5877 5875 5874 5872 5870 5868 5866 5864 5862 5860 5859 5857 5856 5855 5855 5854 5854 5854 5854 5855 5855 5856 5857 5857 5858 5859 5861
5877 5878 5878 5879 5879 5880 5880 5881 5881 5881 5881 5881 5880 5879 5879 5877 5876 5875 5873 5872 5870 5868 5866 5864 5862 5860 5858 5857 5856 5855 5854 5854 5853 5853 5853 5854 5854 5854 5855 5856 5857 5858 5859
5876 5877 5877 5878 5879 5879 5879 5879 5880 5880 5880 5880 5879 5879 5878 5877 5876 5874 5873 5871 5870 5868 5866 5864 5862 5860 5859 5857 5856 5855 5854 5854 5853 5853 5853 5853 5853 5853 5854 5854 5855 5856 5856
5875 5876 5877 5877 5878 5878 5878 5878 5879 5879 5879 5879 5879 5878 5877 5876 5875 5874 5872 5871 5870 5868 5866 5864 5862 5861 5859 5857 5856 5855 5855 5854 5853 5853 5852 5852 5852 5852 5852 5852 5853 5853 5854
5874 5875 5876 5876 5876 5877 5877 5877 5878 5878 5878 5878 5878 5877 5876 5875 5874 5873 5872 5871 5869 5868 5866 5864 5862 5861 5859 5858 5856 5855 5854 5854 5853 5852 5852 5851 5851 5850 5850 5850 5851 5851 5851
5873 5873 5874 5875 5875 5876 5876 5876 5877 5877 5877 5877 5877 5876 5875 5875 5874 5872 5871 5870 5869 5867 5866 5864 5862 5861 5859 5858 5856 5855 5854 5853 5852 5851 5851 5850 5849 5849 5848 5848 5848 5848 5848